sat.trackr.live / text

‹ back to catalog

STARLINK-30414

NORAD 57859 · 2023-141V

PAYLOAD ACTIVE UNKNOWN

§ Identity

Operator
Country
US
Launch date
2023-09-12
Launch site
AFWTR
Launch vehicle
Mass (kg)
RCS (m²)

Purposes: comms

External: N2YO · Heavens-Above · Gunter

§ Orbital elements

Epoch: 2026-05-25T02:58:24.350016Z

Period
94.11 min
Inclination
53.1615°
Eccentricity
0.0001282
Mean motion
15.30194218 rev/d
Perigee alt
474.4 km
Apogee alt
476.1 km
Semi-major
6,853.4 km
B*
6.4803e-6
RAAN
288.8628°
Arg perigee
96.8402°
Mean anomaly
263.2745°
Rev number
15,203

§ Raw data

STARLINK-304141 57859U 23141V   26145.12389294 -.00000167  00000+0  64803-5 0  99912 57859  53.1615 288.8628 0001282  96.8402 263.2745 15.30194218152035

JSON: /api/v1/satellites/57859 · /tle

For live sub-satellite position, see the globe view (requires WebGL).

§ Visibility from observer

Set your observer location to see the next 7 days of passes ≥ 10°. The values pass through the URL so the page stays shareable.

No JS? Fill the form by hand. The geolocation button needs JavaScript.